BJK9260 KSGF-KSGF

Flight info

Callsign BJK9260
Flight time N/A
Altitude 4000
Route SGF
Aircraft E75L/M-VGDW/C

Departure

Time 2026-05-07 17:08
Airport Springfield Branson National Airport (KSGF)

Arrival

Time N/A
Airport Springfield Branson National Airport (KSGF)
Time Latitude Longitude Altitude Speed Heading
2026-05-07 16:56 37.25182 -93.38359 1272 ft 0 kts 291°
2026-05-07 17:06 37.25183 -93.38360 1272 ft 1 kts 298°
2026-05-07 17:06 37.25198 -93.38360 1274 ft 4 kts 40°
2026-05-07 17:06 37.25225 -93.38322 1271 ft 8 kts 49°
2026-05-07 17:07 37.25270 -93.38250 1272 ft 13 kts 53°
2026-05-07 17:07 37.25344 -93.38184 1270 ft 14 kts 32°
2026-05-07 17:07 37.25343 -93.38073 1267 ft 16 kts 143°
2026-05-07 17:07 37.25237 -93.38090 1269 ft 16 kts 200°
2026-05-07 17:08 37.24966 -93.38224 1276 ft 81 kts 200°
2026-05-07 17:08 37.24195 -93.38610 1316 ft 152 kts 204°
2026-05-07 17:08 37.23209 -93.39132 2304 ft 154 kts 204°
2026-05-07 17:08 37.22132 -93.39616 3231 ft 175 kts 201°
2026-05-07 17:09 37.20928 -93.40135 3912 ft 193 kts 201°
2026-05-07 17:09 37.19589 -93.40433 3913 ft 202 kts 176°
2026-05-07 17:09 37.18255 -93.39680 3465 ft 223 kts 138°
2026-05-07 17:09 37.17538 -93.38008 3426 ft 219 kts 102°
2026-05-07 17:10 37.17312 -93.36117 3451 ft 222 kts 100°
2026-05-07 17:10 37.17074 -93.34206 3782 ft 219 kts 100°
2026-05-07 17:10 37.16822 -93.32269 4263 ft 234 kts 101°
2026-05-07 17:10 37.16847 -93.30187 3941 ft 246 kts 71°
2026-05-07 17:11 37.17836 -93.28502 3674 ft 242 kts 32°
2026-05-07 17:11 37.19403 -93.27943 3427 ft 234 kts 352°
2026-05-07 17:11 37.20962 -93.28340 3186 ft 227 kts 347°
2026-05-07 17:11 37.22495 -93.28782 2989 ft 223 kts 339°
2026-05-07 17:12 37.23850 -93.29595 3053 ft 214 kts 322°
2026-05-07 17:12 37.25035 -93.30704 3076 ft 218 kts 319°
2026-05-07 17:12 37.26213 -93.31909 3088 ft 219 kts 317°
2026-05-07 17:12 37.27394 -93.33154 2948 ft 222 kts 317°
2026-05-07 17:13 37.28572 -93.34361 2981 ft 217 kts 318°
2026-05-07 17:13 37.29746 -93.35546 3019 ft 216 kts 318°
2026-05-07 17:13 37.30954 -93.36689 2966 ft 218 kts 331°
2026-05-07 17:13 37.32448 -93.36945 2949 ft 225 kts 12°
2026-05-07 17:14 37.33763 -93.35905 3035 ft 228 kts 46°
2026-05-07 17:14 37.34823 -93.34431 3063 ft 224 kts 43°
2026-05-07 17:14 37.36174 -93.33535 2831 ft 220 kts
2026-05-07 17:14 37.37554 -93.34006 2900 ft 202 kts 316°
2026-05-07 17:15 37.38203 -93.35490 3123 ft 200 kts 277°
2026-05-07 17:15 37.38139 -93.37244 3237 ft 202 kts 257°
2026-05-07 17:15 37.37850 -93.38976 3290 ft 202 kts 259°
2026-05-07 17:15 37.37687 -93.40760 3025 ft 210 kts 265°
2026-05-07 17:16 37.37651 -93.41987 2879 ft 209 kts 268°
2026-05-07 17:16 37.37676 -93.43757 2918 ft 199 kts 271°
2026-05-07 17:16 37.37744 -93.46050 3008 ft 195 kts 270°
2026-05-07 17:16 37.37776 -93.47205 3007 ft 197 kts 270°
2026-05-07 17:17 37.37840 -93.49490 2996 ft 198 kts 270°
2026-05-07 17:17 37.37898 -93.51221 2992 ft 199 kts 274°
2026-05-07 17:17 37.38033 -93.52385 3002 ft 199 kts 278°
2026-05-07 17:17 37.38130 -93.54678 2997 ft 199 kts 264°
2026-05-07 17:18 37.38048 -93.55841 3005 ft 197 kts 263°
2026-05-07 17:18 37.37913 -93.57575 2980 ft 200 kts 263°
2026-05-07 17:18 37.37797 -93.59308 3004 ft 199 kts 264°
2026-05-07 17:18 37.37867 -93.61039 2983 ft 201 kts 287°
2026-05-07 17:19 37.38657 -93.62490 3010 ft 206 kts 317°
2026-05-07 17:19 37.39934 -93.63322 3060 ft 212 kts 343°
2026-05-07 17:19 37.41418 -93.63348 3058 ft 219 kts 12°
2026-05-07 17:19 37.42741 -93.62455 2950 ft 222 kts 44°
2026-05-07 17:20 37.43535 -93.60795 3026 ft 221 kts 75°
2026-05-07 17:20 37.43616 -93.58904 2986 ft 219 kts 105°
2026-05-07 17:20 37.42936 -93.57284 3018 ft 208 kts 140°
2026-05-07 17:20 37.41775 -93.56217 3055 ft 208 kts 149°
2026-05-07 17:21 37.40610 -93.55082 2971 ft 214 kts 142°
2026-05-07 17:21 37.39493 -93.53879 2978 ft 211 kts 144°
2026-05-07 17:21 37.38330 -93.52766 2970 ft 211 kts 147°
2026-05-07 17:21 37.37175 -93.51628 2992 ft 212 kts 144°
2026-05-07 17:22 37.36029 -93.50466 2979 ft 210 kts 145°
2026-05-07 17:22 37.34879 -93.49333 2988 ft 210 kts 145°
2026-05-07 17:22 37.33727 -93.48194 2977 ft 210 kts 145°
2026-05-07 17:22 37.32587 -93.47056 2963 ft 212 kts 145°
2026-05-07 17:23 37.31437 -93.45917 2805 ft 212 kts 145°
2026-05-07 17:23 37.30302 -93.44794 2537 ft 200 kts 145°
2026-05-07 17:23 37.29271 -93.43770 2254 ft 180 kts 145°
2026-05-07 17:23 37.28332 -93.42840 2027 ft 162 kts 144°
2026-05-07 17:24 37.27491 -93.42007 1804 ft 147 kts 146°
2026-05-07 17:24 37.26701 -93.41225 1628 ft 143 kts 145°
2026-05-07 17:24 37.25913 -93.40445 1382 ft 143 kts 145°
2026-05-07 17:24 37.25092 -93.39634 1453 ft 168 kts 144°
2026-05-07 17:25 37.24199 -93.38691 2436 ft 167 kts 134°
2026-05-07 17:25 37.23793 -93.37188 2919 ft 209 kts 89°